Location: Observatory
(52.1446°N, 0.4624°W)
Time: 17:29:16
(UTC+00:00)

ISS - Pass Details

Date: 28 November 2021
Orbit: 417 x 422 km, 51.6° (Epoch: 06 December)

Event Time Altitude Azimuth Distance (km) Brightness Sun altitude
Rises 18:26:11 0° 273° (W) 2,378 1.5 -22.2°
Reaches altitude 10° 18:28:18 10° 272° (W) 1,513 0.2 -22.6°
Enters shadow 18:30:57 52° 264° (W) 536 -3.0 -23.0°
